FW1937 Weather Reports


time (UTC)temp
C
wind
direction
speed
KPH
gust
KPH
rain 1hr
cm
rain 24hr
cm
rain mn
cm
humidity
%
barometer
mb
20260507225019 17 171 8.0 17.7 0.00 0.03 0.00 77 1004.6
20260507224531 16 181 9.7 19.3 0.00 0.03 0.00 76 1004.7
20260507224018 16 150 9.7 19.3 0.00 0.03 0.00 75 1004.7
20260507223734 16 179 9.7 19.3 0.00 0.03 0.00 71 1004.6
20260507222519 15 155 12.9 22.5 0.00 0.03 0.00 69 1004.7
20260507222018 14 140 11.3 22.5 0.00 0.03 0.00 71 1004.6
20260507221518 13 162 9.7 16.1 0.00 0.03 0.00 72 1004.5
20260507221018 13 173 8.0 14.5 0.00 0.03 0.00 72 1004.6
20260507220518 13 185 6.4 12.9 0.00 0.03 0.00 72 1004.6
20260507215518 13 214 4.8 9.7 0.00 0.03 0.03 73 1004.6
20260507215018 13 215 4.8 8.0 0.00 0.03 0.03 73 1004.5
20260507214736 14 211 3.2 6.4 0.00 0.03 0.03 73 1004.6
20260507214018 14 223 3.2 3.2 0.00 0.03 0.03 73 1004.5
20260507213517 14 223 3.2 6.4 0.00 0.03 0.03 73 1004.5
20260507213018 15 223 1.6 6.4 0.00 0.03 0.03 73 1004.5
20260507212518 15 225 0.0 4.8 0.00 0.03 0.03 74 1004.5
20260507212018 15 225 0.0 3.2 0.00 0.03 0.03 74 1004.5
20260507211517 15 225 0.0 3.2 0.00 0.03 0.03 74 1004.4
20260507211030 15 225 0.0 3.2 0.00 0.03 0.03 75 1004.4
20260507210518 15 225 0.0 3.2 0.00 0.03 0.03 75 1004.3
20260507210017 15 225 1.6 4.8 0.00 0.03 0.03 76 1004.2
20260507205517 15 225 3.2 4.8 0.00 0.03 0.03 76 1004.1
20260507205017 16 232 1.6 4.8 0.00 0.03 0.03 77 1004.2
20260507204517 16 215 1.6 4.8 0.00 0.03 0.03 78 1004.1
20260507204017 16 215 1.6 4.8 0.00 0.03 0.03 78 1004.0
20260507203518 16 214 0.0 3.2 0.00 0.03 0.03 79 1003.9
20260507202517 17 214 1.6 3.2 0.00 0.03 0.03 79 1003.9
20260507201517 17 213 0.0 4.8 0.00 0.03 0.03 80 1003.7
20260507201017 17 213 1.6 4.8 0.00 0.03 0.03 80 1003.8
20260507200518 17 213 3.2 6.4 0.00 0.03 0.03 80 1003.7
20260507200017 18 202 3.2 6.4 0.00 0.03 0.03 81 1003.7
20260507195517 18 202 3.2 9.7 0.00 0.03 0.03 81 1003.6
20260507195018 18 197 3.2 9.7 0.00 0.03 0.03 82 1003.5
20260507194517 18 163 3.2 8.0 0.00 0.03 0.03 82 1003.4
20260507194010 18 148 3.2 11.3 0.00 0.03 0.03 83 1003.3
20260507193509 18 148 4.8 11.3 0.00 0.03 0.03 85 1003.2
20260507193009 18 106 4.8 11.3 0.00 0.03 0.03 85 1003.3
20260507192734 18 118 3.2 11.3 0.00 0.03 0.03 85 1003.3
20260507192009 19 79 0.0 4.8 0.00 0.03 0.03 85 1003.3
20260507191510 19 78 0.0 0.0 0.00 0.03 0.03 85 1003.4
20260507191008 19 78 0.0 0.0 0.00 0.03 0.03 86 1003.3
20260507190503 20 78 0.0 0.0 0.00 0.03 0.03 86 1003.3
20260507190000 20 78 0.0 0.0 0.00 0.03 0.03 87 1003.3
20260507185500 20 78 0.0 0.0 0.00 0.03 0.03 87 1003.3
20260507185000 20 78 0.0 0.0 0.00 0.03 0.03 87 1003.3
20260507184500 20 78 0.0 0.0 0.00 0.03 0.03 88 1003.4
20260507184227 20 78 0.0 0.0 0.00 0.03 0.03 90 1003.3
20260507183500 20 78 0.0 3.2 0.00 0.03 0.03 90 1003.3
20260507183001 20 78 0.0 3.2 0.00 0.03 0.03 90 1003.3
20260507182513 20 78 1.6 3.2 0.00 0.03 0.03 90 1003.2
20260507182001 20 78 0.0 3.2 0.00 0.03 0.03 90 1003.2
20260507181500 20 78 0.0 6.4 0.00 0.03 0.03 90 1003.2
20260507181000 20 78 1.6 6.4 0.00 0.03 0.03 90 1003.2
20260507180501 20 78 3.2 6.4 0.00 0.03 0.03 90 1003.1
20260507180001 21 78 3.2 6.4 0.00 0.03 0.03 90 1003.1
20260507175500 21 55 1.6 9.7 0.00 0.03 0.03 90 1003.0
20260507175000 21 39 1.6 9.7 0.00 0.03 0.03 90 1003.0
20260507174720 21 86 1.6 12.9 0.00 0.03 0.03 90 1003.1
20260507173956 21 50 3.2 12.9 0.00 0.03 0.03 90 1003.1
20260507173456 21 88 4.8 14.5 0.00 0.03 0.03 90 1003.1
20260507172957 21 99 4.8 14.5 0.00 0.03 0.03 90 1003.1
20260507172456 21 102 3.2 9.7 0.00 0.03 0.03 89 1003.1
20260507171957 21 34 3.2 9.7 0.00 0.03 0.03 89 1003.1
20260507171457 21 31 3.2 9.7 0.00 0.03 0.03 89 1003.1
20260507170956 21 82 3.2 9.7 0.00 0.03 0.03 88 1003.1
20260507170509 21 26 3.2 14.5 0.00 0.03 0.03 88 1003.1
20260507170219 21 25 3.2 14.5 0.00 0.03 0.03 88 1003.2
20260507165457 22 56 3.2 6.4 0.00 0.03 0.03 87 1003.3
20260507164956 22 36 3.2 9.7 0.00 0.03 0.03 87 1003.3
20260507164457 22 91 3.2 8.0 0.00 0.03 0.03 86 1003.3
20260507164218 21 83 3.2 8.0 0.00 0.03 0.03 86 1003.3
20260507163457 21 102 3.2 12.9 0.00 0.03 0.03 86 1003.1
20260507162956 21 55 4.8 12.9 0.00 0.03 0.03 86 1003.2
20260507162457 21 96 4.8 12.9 0.00 0.03 0.03 86 1003.2
20260507161957 21 90 3.2 12.9 0.00 0.03 0.03 86 1003.0
20260507161457 21 54 4.8 14.5 0.00 0.03 0.03 86 1003.0
20260507160957 21 55 4.8 14.5 0.00 0.03 0.03 86 1003.1
20260507160458 21 26 4.8 12.9 0.00 0.03 0.03 86 1003.0
20260507155957 21 103 4.8 16.1 0.00 0.03 0.03 86 1003.0
20260507155456 21 11 4.8 16.1 0.00 0.03 0.03 85 1003.2
20260507155224 21 44 6.4 17.7 0.00 0.03 0.03 85 1003.2
20260507154456 21 14 6.4 17.7 0.00 0.03 0.03 84 1003.2
20260507153957 21 31 6.4 17.7 0.00 0.03 0.03 80 1003.2
20260507153719 21 323 6.4 17.7 0.00 0.03 0.03 80 1003.7
20260507153214 21 18 6.4 16.1 0.00 0.03 0.03 80 1003.2
20260507152456 20 17 6.4 19.3 0.00 0.03 0.03 80 1003.3
20260507151957 20 24 6.4 19.3 0.00 0.03 0.03 80 1003.3
20260507151457 20 344 6.4 16.1 0.00 0.03 0.03 80 1003.3
20260507150958 21 38 8.0 16.1 0.00 0.03 0.03 81 1003.2
20260507150457 21 355 8.0 20.9 0.00 0.03 0.03 81 1003.2
20260507145957 21 11 6.4 20.9 0.00 0.03 0.03 80 1003.2
20260507145457 21 355 6.4 14.5 0.00 0.03 0.03 80 1003.2
20260507144957 21 25 6.4 17.7 0.00 0.03 0.03 80 1003.4
20260507144457 21 342 6.4 17.7 0.00 0.03 0.03 80 1003.4
20260507143956 21 11 8.0 14.5 0.00 0.03 0.03 80 1003.5
20260507143457 21 11 8.0 19.3 0.00 0.03 0.03 80 1003.6
20260507142958 21 37 8.0 19.3 0.00 0.03 0.03 80 1003.6
20260507142459 21 317 8.0 19.3 0.00 0.03 0.03 80 1003.6
20260507141958 21 39 8.0 19.3 0.00 0.03 0.03 80 1003.7
20260507140957 21 5 9.7 17.7 0.00 0.03 0.03 79 1003.7
20260507140457 21 14 8.0 17.7 0.00 0.03 0.03 80 1003.8
20260507135958 21 5 8.0 20.9 0.00 0.03 0.03 79 1003.9
20260507135457 20 0 8.0 20.9 0.00 0.03 0.03 79 1004.0
20260507134957 21 327 8.0 16.1 0.00 0.03 0.03 79 1004.0
20260507134456 20 339 6.4 16.1 0.00 0.03 0.03 79 1004.0
20260507133957 20 5 6.4 16.1 0.00 0.03 0.03 79 1004.1
20260507133723 20 31 6.4 17.7 0.00 0.03 0.03 79 1004.0
20260507133212 20 20 6.4 19.3 0.00 0.03 0.03 78 1004.0
20260507132444 20 5 8.0 19.3 0.00 0.03 0.03 79 1004.1
20260507131944 20 17 8.0 19.3 0.00 0.03 0.03 79 1004.1
20260507131444 20 42 8.0 19.3 0.00 0.03 0.03 79 1004.2
20260507130944 20 348 9.7 19.3 0.00 0.05 0.03 79 1004.3
20260507130443 20 327 9.7 19.3 0.00 0.05 0.03 79 1004.4
20260507125943 20 14 9.7 17.7 0.00 0.05 0.03 79 1004.5
20260507125443 20 13 9.7 17.7 0.00 0.05 0.03 79 1004.4
20260507125158 20 9 8.0 19.3 0.00 0.05 0.03 80 1004.5
20260507124444 20 348 6.4 19.3 0.00 0.05 0.03 80 1004.6
20260507123944 20 5 6.4 20.9 0.00 0.05 0.03 79 1004.6
20260507123443 20 350 6.4 20.9 0.00 0.05 0.03 79 1004.6
20260507122943 20 21 8.0 20.9 0.00 0.08 0.03 78 1004.7
20260507122443 20 33 8.0 20.9 0.00 0.08 0.03 78 1004.6
20260507121943 20 355 6.4 19.3 0.00 0.10 0.03 77 1004.6
20260507121444 20 355 8.0 19.3 0.00 0.10 0.03 76 1004.7
20260507120943 20 11 8.0 17.7 0.00 0.13 0.03 76 1004.7
20260507120443 20 5 8.0 17.7 0.00 0.15 0.03 76 1004.7
20260507115944 20 17 6.4 16.1 0.00 0.15 0.03 75 1004.8
20260507115444 20 16 6.4 17.7 0.00 0.15 0.03 74 1004.9
20260507114944 20 5 6.4 17.7 0.00 0.15 0.03 73 1004.9
20260507114456 20 17 6.4 16.1 0.00 0.15 0.03 78 1004.9
20260507114204 20 338 4.8 16.1 0.00 0.15 0.03 77 1004.9
20260507113444 20 28 4.8 14.5 0.00 0.15 0.03 76 1004.9
20260507112443 19 314 6.4 14.5 0.00 0.15 0.03 74 1005.0
20260507111944 19 355 6.4 16.1 0.00 0.15 0.03 73 1005.1
20260507111444 19 17 6.4 16.1 0.00 0.15 0.03 73 1005.2
20260507110944 19 18 6.4 14.5 0.00 0.15 0.03 72 1005.2
20260507110444 18 0 4.8 11.3 0.00 0.15 0.03 72 1005.3
20260507105944 18 350 4.8 8.0 0.00 0.15 0.03 71 1005.5
20260507105707 18 5 4.8 9.7 0.00 0.15 0.03 71 1005.8
20260507104944 18 348 4.8 9.7 0.00 0.15 0.03 70 1005.8
20260507104443 18 350 4.8 12.9 0.00 0.15 0.03 71 1005.8
20260507103943 18 36 4.8 12.9 0.00 0.15 0.03 71 1005.9
20260507103444 18 21 3.2 9.7 0.00 0.15 0.03 70 1006.0
20260507102944 18 355 3.2 4.8 0.00 0.15 0.03 70 1006.0
20260507102443 18 0 3.2 9.7 0.00 0.15 0.03 71 1006.1
20260507101944 18 11 3.2 9.7 0.00 0.15 0.03 70 1006.2
20260507101457 18 351 4.8 8.0 0.00 0.15 0.03 71 1006.3
20260507101220 18 27 4.8 8.0 0.00 0.15 0.03 70 1006.3
20260507100723 18 355 3.2 8.0 0.00 0.15 0.03 69 1006.3
20260507095943 18 5 3.2 8.0 0.00 0.15 0.03 69 1006.3
20260507095444 18 325 3.2 8.0 0.00 0.15 0.03 68 1006.4
20260507094943 18 348 3.2 8.0 0.00 0.15 0.03 67 1006.5
20260507094703 17 28 3.2 8.0 0.00 0.15 0.03 66 1006.5
20260507093939 17 54 1.6 8.0 0.00 0.15 0.03 66 1006.6
20260507093437 17 19 3.2 6.4 0.00 0.15 0.03 65 1006.6
20260507092938 17 16 1.6 6.4 0.00 0.15 0.03 64 1006.7
20260507092438 17 72 1.6 6.4 0.00 0.15 0.03 63 1006.7
20260507091938 16 342 4.8 11.3 0.00 0.15 0.03 62 1006.8
20260507091437 16 92 3.2 11.3 0.00 0.15 0.03 61 1006.8
20260507090937 16 98 3.2 9.7 0.00 0.15 0.03 62 1006.7
20260507090451 16 99 4.8 9.7 0.00 0.15 0.03 62 1006.8
20260507085938 15 102 3.2 9.7 0.00 0.18 0.03 62 1006.8
20260507085438 15 188 3.2 9.7 0.00 0.18 0.03 64 1006.8
20260507084938 15 125 3.2 12.9 0.00 0.18 0.03 64 1006.8
20260507083938 14 117 0.0 6.4 0.00 0.18 0.03 66 1006.8
20260507083703 13 204 1.6 6.4 0.00 0.20 0.03 66 1006.8
20260507082937 13 204 3.2 6.4 0.00 0.20 0.03 67 1006.8
20260507082438 13 40 1.6 4.8 0.00 0.20 0.03 67 1006.9
20260507082213 13 138 3.2 6.4 0.00 0.20 0.03 68 1006.9
20260507081437 12 137 3.2 6.4 0.00 0.20 0.03 68 1007.0
20260507080937 12 134 3.2 6.4 0.00 0.20 0.03 68 1007.0
20260507080421 12 158 3.2 6.4 0.00 0.20 0.03 68 1007.0
20260507075921 12 207 1.6 4.8 0.00 0.23 0.03 68 1007.0
20260507075417 11 232 1.6 3.2 0.00 0.28 0.03 68 1007.0
20260507074916 11 233 1.6 3.2 0.00 0.28 0.03 69 1007.1
20260507074417 11 233 1.6 3.2 0.00 0.28 0.03 68 1007.2
20260507073915 11 240 1.6 8.0 0.00 0.28 0.03 69 1007.2
20260507073413 11 240 3.2 8.0 0.00 0.28 0.03 68 1007.2
20260507072913 10 194 3.2 9.7 0.00 0.28 0.03 69 1007.3
20260507072412 10 157 3.2 9.7 0.00 0.28 0.03 69 1007.3
20260507071912 10 173 1.6 8.0 0.00 0.28 0.03 69 1007.2
20260507071413 10 222 3.2 8.0 0.00 0.28 0.03 69 1007.3
20260507070913 10 220 3.2 8.0 0.00 0.28 0.03 69 1007.4
20260507070412 10 215 4.8 8.0 0.00 0.28 0.03 69 1007.3
20260507065912 9 208 4.8 8.0 0.00 0.28 0.03 69 1007.4
20260507065412 9 213 3.2 6.4 0.00 0.28 0.03 69 1007.4
20260507064913 9 238 3.2 6.4 0.00 0.28 0.03 69 1007.4
20260507064413 9 240 1.6 6.4 0.00 0.28 0.03 69 1007.4
20260507063913 8 212 0.0 0.0 0.00 0.28 0.03 69 1007.4
20260507063412 8 213 0.0 4.8 0.03 0.28 0.03 69 1007.5
20260507062912 8 223 1.6 4.8 0.03 0.28 0.03 69 1007.5
20260507062412 8 223 3.2 4.8 0.03 0.28 0.03 69 1007.4
20260507062131 8 224 3.2 4.8 0.03 0.28 0.03 69 1007.4
20260507061413 8 229 3.2 4.8 0.03 0.28 0.03 69 1007.4
20260507060912 7 240 3.2 6.4 0.03 0.28 0.03 69 1007.6
20260507060413 7 229 3.2 6.4 0.03 0.28 0.03 69 1007.6
20260507055912 7 228 1.6 4.8 0.03 0.28 0.03 69 1007.6
20260507055413 7 226 0.0 4.8 0.03 0.28 0.03 69 1007.6
20260507054912 7 217 0.0 4.8 0.03 0.28 0.03 69 1007.6
20260507054413 7 219 0.0 3.2 0.03 0.28 0.03 69 1007.6
20260507054133 7 217 0.0 0.0 0.03 0.28 0.03 69 1007.6
20260507053412 7 217 0.0 0.0 0.00 0.25 0.00 69 1007.6
20260507052912 7 217 0.0 0.0 0.00 0.25 0.00 69 1007.4
20260507052413 7 217 0.0 0.0 0.00 0.25 0.00 69 1007.5
20260507051913 7 217 0.0 3.2 0.00 0.25 0.00 69 1007.5
20260507051413 7 217 0.0 3.2 0.00 0.28 0.00 69 1007.5
20260507050914 7 217 1.6 6.4 0.00 0.30 0.00 69 1007.5
20260507050638 7 217 3.2 6.4 0.00 0.30 0.00 69 1007.5
20260507045912 7 250 1.6 4.8 0.00 0.33 0.00 69 1007.5
20260507045633 7 254 1.6 4.8 0.00 0.36 0.00 69 1007.5
20260507044413 7 228 0.0 0.0 0.00 0.41 0.00 68 1007.3
20260507043912 7 228 0.0 0.0 0.00 0.43 0.00 68 1007.4
20260507043412 7 228 0.0 0.0 0.00 0.51 0.00 69 1007.4
20260507043130 7 228 0.0 0.0 0.00 0.53 0.00 69 1007.4
20260507042413 7 228 0.0 0.0 0.00 0.58 0.00 69 1007.4
20260507041912 7 228 0.0 4.8 0.00 0.58 0.00 69 1007.5
20260507041411 7 228 0.0 4.8 0.00 0.61 0.00 69 1007.4
20260507040910 7 228 1.6 3.2 0.00 0.61 0.00 69 1007.5
20260507040404 7 228 1.6 4.8 0.00 0.61 0.00 69 1007.5
20260507035404 7 227 1.6 3.2 0.00 0.61 0.00 69 1007.6
20260507034904 7 227 0.0 3.2 0.00 0.61 0.00 69 1007.7
20260507033903 7 227 1.6 4.8 0.00 0.61 0.00 69 1007.7
20260507033404 7 227 1.6 4.8 0.00 0.61 0.00 69 1007.5
20260507032903 7 228 0.0 1.6 0.00 0.61 0.00 69 1007.6
20260507032404 7 228 1.6 4.8 0.00 0.61 0.00 69 1007.7
20260507031903 7 228 1.6 4.8 0.00 0.61 0.00 69 1007.6
20260507031625 7 228 3.2 4.8 0.00 0.61 0.00 69 1007.6
20260507030917 7 229 1.6 6.4 0.00 0.61 0.00 69 1007.7
20260507030404 7 232 1.6 6.4 0.00 0.61 0.00 69 1007.7
20260507025904 7 231 1.6 4.8 0.00 0.61 0.00 68 1007.7
20260507025403 7 232 1.6 4.8 0.00 0.61 0.00 68 1007.7
20260507024903 7 241 0.0 4.8 0.00 0.61 0.00 69 1007.6
20260507024619 8 243 0.0 0.0 0.00 0.61 0.00 69 1007.5
20260507024127 8 243 0.0 0.0 0.00 0.61 0.00 69 1007.6
20260507023358 8 242 0.0 0.0 0.00 0.61 0.00 69 1007.7
20260507023118 8 242 0.0 0.0 0.00 0.61 0.00 69 1007.8
20260507022347 8 242 0.0 0.0 0.00 0.61 0.00 69 1007.7
20260507022108 8 242 0.0 0.0 0.00 0.61 0.00 68 1007.8
20260507021606 8 242 0.0 1.6 0.00 0.61 0.00 69 1007.8
20260507020844 8 242 0.0 1.6 0.00 0.61 0.00 69 1007.8
20260507020343 8 242 0.0 3.2 0.00 0.61 0.00 69 1007.7
20260507015843 8 243 0.0 3.2 0.00 0.61 0.00 69 1007.8
20260507015343 8 243 0.0 1.6 0.00 0.61 0.00 69 1007.8
20260507014844 8 243 1.6 3.2 0.00 0.61 0.00 69 1007.8
20260507014344 8 243 1.6 4.8 0.00 0.61 0.00 69 1007.9
20260507013843 8 244 1.6 4.8 0.00 0.61 0.00 69 1008.0
20260507013343 8 244 1.6 3.2 0.00 0.61 0.00 69 1008.0
20260507013107 8 247 3.2 6.4 0.00 0.61 0.00 69 1007.9
20260507012343 8 249 1.6 6.4 0.00 0.61 0.00 69 1008.0
20260507011844 8 191 0.0 3.2 0.00 0.61 0.00 69 1008.1
20260507011342 8 190 1.6 4.8 0.00 0.61 0.00 69 1008.0
20260507011107 8 190 1.6 6.4 0.00 0.61 0.00 69 1008.0
20260507010352 8 190 1.6 6.4 0.00 0.61 0.00 69 1008.0
20260507005839 8 211 1.6 4.8 0.00 0.61 0.00 69 1008.0
20260507005340 8 211 0.0 4.8 0.00 0.61 0.00 69 1008.0
20260507004340 8 211 1.6 4.8 0.00 0.61 0.00 69 1008.2
20260507003853 8 206 1.6 4.8 0.00 0.61 0.00 69 1008.2
20260507003340 8 205 3.2 6.4 0.00 0.61 0.00 69 1008.3
20260507002839 8 205 3.2 6.4 0.00 0.61 0.00 69 1008.3
20260507002335 8 267 1.6 4.8 0.00 0.61 0.00 69 1008.3
20260507002102 8 213 0.0 0.0 0.00 0.61 0.00 69 1008.3
20260507001335 8 213 0.0 0.0 0.00 0.61 0.00 69 1008.4
20260507000835 8 213 0.0 0.0 0.00 0.61 0.00 69 1008.3
20260507000558 8 213 0.0 0.0 0.00 0.61 0.00 69 1008.5
20260507000056 9 213 0.0 0.0 0.00 0.61 0.00 69 1008.5
20260506235335 9 214 0.0 0.0 0.00 0.61 0.00 69 1008.5
20260506234843 9 214 0.0 3.2 0.00 0.61 0.00 69 1008.5
20260506234327 9 214 1.6 3.2 0.00 0.61 0.00 69 1008.5
20260506233827 9 212 1.6 4.8 0.00 0.61 0.00 69 1008.5
20260506233320 9 211 1.6 4.8 0.00 0.61 0.00 69 1008.7
20260506232822 9 211 0.0 1.6 0.00 0.61 0.00 69 1008.8
20260506232319 9 211 0.0 1.6 0.00 0.61 0.00 69 1008.7
20260506231823 9 211 1.6 3.2 0.00 0.61 0.00 69 1008.7
20260506231331 9 211 1.6 3.2 0.00 0.61 0.00 69 1008.8
20260506230823 9 211 1.6 3.2 0.00 0.61 0.00 69 1008.7
20260506230540 9 210 1.6 4.8 0.00 0.61 0.00 69 1008.7
20260506225822 9 210 1.6 4.8 0.00 0.61 0.00 69 1008.7
20260506225312 9 210 0.0 3.2 0.00 0.61 0.00 69 1008.7